Vorticity
3 5 6 7 8 5 4 3 4 8 9 8 7 9 12 10 8 7 6 5 4 4 5 5 5 6 7 7 5 5 3 1 1 2 5 8 10 9 6 5 3 5 7 5 5 5 4 5 6 5 2 2 3 3 4 3 3 2 5 6 3 6 3 1 1 0 3 6 6 6 7 7 6 6 6 6 6 6 5 5 5 5 5 5 5 6 6 8 10 11 10 9 8 7 8 7 8
2 3 6 6 5 4 4 5 5 5 6 7 5 6 9 11 10 11 11 9 7 4 5 6 6 5 4 9 7 2 4 5 3 2 5 8 10 9 8 7 6 6 5 3 4 3 3 5 4 2 3 4 3 3 4 4 4 2 5 7 5 5 2 3 5 5 7 5 6 6 6 6 5 5 6 5 5 5 5 5 5 4 4 4 4 4 5 6 8 11 12 11 10 8 9 9 8
5 5 7 5 5 5 5 5 2 2 5 5 5 5 4 6 9 10 9 9 10 9 6 4 7 5 2 6 4 2 6 5 3 2 5 8 8 9 9 8 7 6 4 3 3 5 5 4 4 3 4 4 2 3 3 4 5 2 4 6 5 3 1 5 6 5 6 6 7 6 6 5 5 5 5 4 4 4 4 5 5 4 4 4 4 4 4 4 5 8 12 13 13 11 10 11 8
4 5 7 5 5 7 6 5 3 3 5 5 7 6 -1 -0 5 7 6 8 11 11 8 3 5 9 9 7 2 3 4 3 5 3 4 8 7 7 8 6 5 4 4 4 5 5 3 3 5 3 4 4 3 3 3 4 5 5 6 6 6 6 6 7 6 6 6 6 7 6 6 5 5 5 4 4 4 4 4 5 5 4 4 4 4 4 4 4 4 4 7 11 13 12 10 10 9
1 4 5 6 8 8 7 7 6 5 4 4 8 7 2 1 4 6 7 8 10 12 10 4 1 4 8 9 6 4 3 8 12 4 3 8 7 5 6 5 4 3 3 5 5 4 4 4 4 5 5 5 4 4 5 5 5 6 7 6 6 6 7 6 6 6 6 6 6 5 5 4 5 4 4 4 4 4 4 5 4 4 4 5 4 5 5 4 4 3 4 6 10 12 10 9 10
3 3 4 7 9 10 9 11 10 7 4 1 3 5 4 5 5 5 7 6 8 12 13 9 5 3 6 11 12 8 8 9 9 4 2 6 7 4 4 5 5 3 2 4 5 4 5 4 3 5 5 5 5 5 5 4 5 5 4 5 5 5 5 4 5 5 6 6 5 6 5 5 4 4 5 4 5 5 4 4 4 4 4 4 4 4 5 5 4 4 4 3 5 9 11 9 9
7 6 6 6 9 9 9 13 13 11 8 5 4 3 2 3 4 4 6 6 4 6 9 8 3 2 4 9 11 8 10 7 4 5 3 4 6 4 4 4 4 4 3 2 5 4 3 5 4 4 5 5 6 5 5 5 5 4 4 5 4 4 4 4 4 4 5 5 5 5 5 5 5 5 5 5 6 5 5 4 4 4 4 5 4 4 4 4 5 5 5 4 4 5 8 10 10
8 10 7 4 8 8 7 10 11 12 10 9 10 9 7 6 5 4 6 8 6 5 7 5 2 8 7 5 8 7 9 8 5 4 3 4 5 4 4 4 3 3 5 3 4 5 2 3 3 3 3 4 5 5 5 5 5 4 4 5 5 5 4 4 4 4 4 4 5 5 6 6 5 6 6 6 5 5 5 5 5 5 5 5 5 5 4 4 4 4 4 4 4 4 4 8 10
5 9 8 4 6 6 8 7 6 8 5 6 9 9 8 7 7 5 5 7 8 7 8 9 9 14 12 9 9 7 9 9 6 4 4 5 5 4 4 4 4 2 2 3 4 5 3 1 1 4 4 3 5 6 5 5 4 3 3 5 6 5 5 5 4 4 5 5 5 5 6 6 6 6 6 6 6 7 6 6 6 5 5 5 5 5 5 5 4 4 4 4 4 4 4 4 7
5 5 4 6 8 7 8 4 3 7 5 4 4 5 7 7 5 3 4 5 8 9 9 14 12 8 10 12 9 6 8 7 4 4 4 5 5 4 3 4 6 5 2 2 3 3 3 2 1 4 6 5 5 5 5 4 3 3 5 6 5 5 4 4 5 5 5 5 5 6 6 6 7 6 6 6 6 7 7 8 7 7 7 6 7 6 6 6 5 5 4 4 4 3 4 3 4
4 4 1 5 11 9 8 3 2 7 9 6 3 5 6 7 5 3 5 4 8 11 8 13 11 6 9 9 7 7 8 7 4 3 4 4 5 4 3 3 5 7 5 2 2 2 3 4 2 3 4 5 5 4 3 4 4 5 5 5 4 5 5 5 5 5 5 6 6 6 6 6 5 4 4 4 4 4 4 5 5 6 6 6 7 7 7 7 7 7 6 6 6 5 5 4 3
4 4 -1 3 10 9 8 3 3 8 13 11 6 5 3 5 5 4 5 5 10 14 13 13 6 4 8 8 6 7 8 8 6 4 3 3 4 4 3 2 2 4 4 3 2 2 4 5 4 3 4 5 5 5 5 6 5 5 5 5 5 5 6 7 7 6 7 7 6 6 5 4 3 3 3 4 4 3 3 3 3 3 2 3 3 3 4 5 6 6 6 6 6 7 7 6 5
5 5 0 4 10 9 7 3 6 8 7 6 5 4 5 7 5 3 2 4 9 11 18 19 9 6 6 6 8 8 8 8 7 7 5 3 4 3 3 2 2 3 3 3 2 3 4 5 5 3 4 6 6 7 7 7 6 6 6 6 6 7 7 7 6 6 6 6 5 5 4 4 4 5 6 6 6 6 7 6 5 4 4 3 3 2 2 2 3 3 3 3 3 4 5 6 7
4 6 2 4 6 7 9 5 5 6 2 3 5 5 7 7 4 3 2 3 7 5 10 13 14 15 8 5 8 7 7 7 7 8 6 5 5 4 4 4 4 4 4 4 4 5 6 6 6 5 6 6 7 7 7 7 7 6 6 7 6 6 5 5 5 5 5 5 5 5 6 6 6 7 8 8 7 7 7 8 8 7 6 6 5 5 4 3 3 3 3 2 2 2 2 3 4
1 8 3 1 1 3 10 8 5 4 3 4 4 4 5 6 4 2 2 4 7 4 5 9 13 15 9 7 8 6 6 7 7 8 7 7 7 7 7 7 7 6 6 6 6 7 8 7 6 5 5 6 5 4 5 5 5 5 5 5 4 4 5 5 6 6 6 7 7 7 6 7 7 7 7 7 7 7 7 8 8 7 6 7 7 7 6 6 6 7 6 5 5 5 5 6 5
-3 7 4 1 3 3 9 13 11 7 6 7 7 7 5 5 5 4 4 4 6 5 5 10 11 12 12 13 10 7 7 8 8 9 8 8 7 8 8 8 8 8 8 7 7 8 8 7 6 5 4 4 5 4 4 5 5 4 4 4 4 5 6 7 6 6 6 7 6 5 5 6 6 6 6 7 7 6 7 9 10 9 8 8 8 8 7 7 7 7 6 7 7 7 7 7 7
1 5 6 4 3 2 4 9 12 11 10 6 8 14 9 4 6 8 7 6 7 4 5 10 11 11 12 13 11 9 9 9 10 10 9 9 8 9 9 9 10 9 9 9 9 9 9 9 7 7 7 7 6 6 6 6 6 5 5 6 6 6 7 6 4 3 5 8 7 5 5 6 6 6 6 7 7 6 6 8 10 11 10 9 10 9 9 10 8 5 4 5 6 7 6 5 5
4 4 5 2 2 1 2 7 9 11 7 2 9 15 10 5 9 10 6 5 5 3 6 13 12 10 12 13 11 8 9 10 10 10 10 10 9 9 10 10 11 11 10 10 10 10 10 10 9 8 8 8 8 7 6 5 6 6 6 6 6 6 6 5 1 -0 5 9 9 7 5 4 6 6 5 5 7 7 6 7 7 8 8 7 9 10 10 11 11 9 7 6 6 7 7 6 6
1 3 3 -1 1 0 4 12 11 10 5 5 15 14 10 9 9 6 2 2 3 2 6 12 12 9 12 13 10 7 8 9 9 10 10 10 10 10 10 10 10 10 10 10 10 9 8 7 6 7 8 9 8 6 5 5 5 5 5 6 5 5 5 5 0 -1 4 6 7 7 5 5 5 6 6 6 6 6 5 7 6 6 7 5 6 7 6 7 9 12 13 12 10 7 8 7 6
2 1 1 -3 -2 2 11 12 7 10 5 8 15 12 10 9 6 4 2 4 5 4 4 10 13 9 10 11 8 7 8 9 9 9 8 8 9 9 10 11 10 9 8 8 9 7 6 8 8 8 9 10 11 9 8 7 6 6 6 6 6 6 5 4 1 1 3 5 6 6 5 5 4 5 7 8 7 6 5 7 6 6 8 7 6 5 5 6 6 8 10 11 10 8 8 8 6
6 1 -1 -4 -2 9 17 11 5 8 5 9 15 13 12 8 6 6 6 9 8 7 6 9 13 9 8 9 8 8 10 10 9 8 8 7 7 8 11 11 11 10 8 9 10 10 9 11 12 11 10 10 12 12 10 9 8 8 8 8 7 6 5 4 4 4 4 7 7 5 6 5 5 6 7 9 9 8 7 7 7 7 8 8 7 7 7 7 7 7 7 8 9 7 7 7 8
2 -0 -1 -3 3 13 11 6 5 5 5 8 12 13 13 8 7 7 9 11 10 12 11 8 11 11 8 6 6 9 10 9 9 9 7 7 8 9 11 11 10 8 8 10 11 11 11 11 11 10 9 8 7 7 6 7 8 8 8 8 7 6 5 5 5 5 6 9 7 5 6 5 6 7 7 8 9 9 9 8 9 9 9 8 9 9 9 9 10 9 9 10 10 9 8 7 8
-0 -2 -4 -2 9 13 8 10 8 2 7 7 7 11 11 10 10 11 12 10 9 13 9 6 9 12 11 7 5 8 11 10 8 9 8 8 9 10 12 12 11 10 9 10 10 9 8 8 9 9 7 6 6 7 7 7 7 8 8 8 7 7 5 4 7 8 8 8 7 6 7 7 8 9 8 8 9 10 9 10 11 10 11 12 12 12 11 11 11 10 11 12 13 14 12 10 10
0 -3 -8 0 10 7 7 17 10 1 8 7 5 9 8 10 12 13 13 8 7 9 6 6 9 11 10 9 7 8 11 11 8 8 10 9 8 8 9 11 12 12 11 10 9 8 8 8 9 8 6 5 6 7 7 7 7 7 6 6 5 5 6 7 9 10 8 7 6 7 7 7 9 8 8 8 9 9 10 10 11 10 11 12 12 12 11 10 11 11 11 11 11 13 12 12 11
1 -2 -6 4 6 1 12 21 9 4 11 7 3 6 6 7 8 9 12 9 7 7 6 6 7 8 9 9 9 10 9 9 8 9 10 8 7 7 5 6 7 9 9 9 9 8 8 8 8 8 5 4 6 6 7 6 6 6 6 5 4 6 9 10 9 8 7 7 7 8 6 6 9 9 9 9 9 9 9 9 8 8 8 8 8 8 8 8 8 8 9 9 9 9 10 10 10
-0 -1 -6 3 4 4 18 20 8 7 11 5 1 4 7 7 6 6 8 9 8 8 8 8 9 8 7 8 8 9 9 8 7 7 8 7 6 6 6 6 6 7 8 7 8 8 7 6 7 7 6 5 6 7 7 7 8 8 8 8 8 8 9 9 8 7 9 10 9 6 6 8 9 9 10 9 9 8 7 7 6 6 6 5 6 5 6 6 6 7 7 8 8 9 10 9 10
-1 -2 -5 0 5 9 16 13 4 6 8 6 4 4 5 6 7 5 5 8 9 8 9 10 11 10 8 9 9 9 9 9 7 6 6 6 5 5 6 7 7 8 8 8 7 7 6 6 6 6 6 6 6 7 8 9 9 8 8 9 8 8 7 7 7 8 9 11 9 6 8 11 7 6 9 6 4 5 5 5 5 5 5 5 5 5 5 5 5 6 5 5 6 8 10 11 11
-3 -5 -5 -4 3 9 11 8 4 5 7 7 6 3 1 4 7 7 4 5 7 7 9 10 9 11 9 9 11 10 9 8 8 8 6 4 6 6 6 6 7 7 7 7 6 6 5 5 5 5 6 6 6 7 8 8 8 7 7 6 6 7 7 7 7 7 7 7 7 7 10 12 8 9 14 5 1 4 3 4 4 4 5 4 5 5 4 4 4 4 4 4 4 5 7 9 11
-2 -7 -7 0 6 4 5 9 5 3 8 9 6 4 2 3 5 8 7 3 5 6 6 8 8 8 8 9 11 10 10 9 8 10 8 5 6 7 8 7 7 7 6 6 5 5 5 4 5 5 6 6 6 6 6 7 6 6 6 6 6 6 6 6 7 7 7 6 6 6 7 8 7 8 12 8 4 4 4 4 3 3 4 4 5 5 4 4 3 4 3 4 3 3 4 5 7
4 -4 -4 6 4 0 12 15 7 4 10 12 8 6 5 3 4 10 12 4 3 8 6 7 7 7 7 7 10 10 10 10 8 9 7 5 6 7 9 9 8 6 5 5 6 5 4 4 5 5 5 5 5 5 4 5 5 5 5 6 6 6 6 6 7 7 7 6 6 5 4 4 5 5 6 6 4 4 4 3 2 3 3 3 4 4 4 3 3 4 3 4 3 3 4 4 4
5 1 1 10 7 9 20 14 9 7 4 9 8 6 8 5 4 7 13 10 3 4 4 5 6 8 8 5 8 10 10 8 7 8 6 5 6 6 8 9 9 7 5 5 5 5 5 4 3 3 4 4 3 3 3 4 4 4 4 5 5 4 5 6 6 6 6 5 5 6 6 5 7 6 5 4 3 3 3 3 3 3 2 2 3 3 3 3 4 4 4 4 4 4 4 4 4
4 4 1 7 11 14 15 10 14 9 1 8 4 4 11 10 8 5 8 16 11 4 3 5 4 7 10 8 7 9 12 9 5 6 6 5 6 7 8 9 8 6 5 5 5 5 5 4 3 3 3 3 4 4 5 5 4 5 5 5 5 4 5 5 5 6 6 5 5 6 7 6 6 6 6 4 4 4 4 4 3 3 3 3 3 3 3 2 3 3 3 4 4 4 5 5 5
4 8 4 2 7 9 11 12 14 7 8 17 7 6 10 5 9 10 6 12 13 8 6 5 3 5 9 10 9 10 14 13 7 6 6 6 6 7 8 8 7 6 5 5 6 6 5 5 3 3 3 4 6 7 7 7 6 7 8 8 7 6 6 5 5 5 4 4 4 6 6 6 6 6 6 5 5 5 4 5 4 4 3 3 4 3 4 3 3 3 3 3 3 4 5 5 5
6 10 7 7 8 11 14 12 9 4 7 17 13 7 4 2 7 11 8 6 5 6 8 9 7 5 5 9 11 10 15 16 12 9 6 7 7 7 8 7 6 5 5 6 7 7 5 6 4 2 3 5 7 7 7 8 7 8 9 9 9 9 9 9 7 5 4 4 3 4 4 4 5 5 6 6 6 6 5 6 6 5 4 4 5 5 5 4 4 3 3 3 3 3 4 4 5
16 8 9 18 18 13 9 5 7 4 2 14 17 8 10 14 7 2 7 7 5 4 6 8 7 5 4 5 8 8 12 17 17 14 8 8 9 7 6 5 5 4 4 4 6 8 6 5 3 1 3 6 7 7 7 7 7 8 8 9 9 9 9 9 9 7 6 6 5 4 4 5 5 6 6 5 6 6 6 6 6 6 6 6 6 6 6 6 5 5 4 4 4 4 4 4 5
8 -2 10 22 13 6 5 4 8 1 -3 14 17 4 9 17 9 4 9 11 10 8 6 5 5 6 4 4 5 5 7 11 15 18 12 9 9 8 5 4 4 2 4 5 6 8 7 5 4 4 7 8 7 6 5 5 5 6 7 8 9 8 8 8 8 7 7 6 7 6 6 6 7 7 7 6 6 6 6 6 7 7 7 7 7 7 7 6 6 6 5 5 5 5 5 5 4
-4 -1 9 9 -6 -3 5 2 2 -5 -5 13 11 -9 -12 -3 5 8 10 13 13 10 7 4 4 6 4 4 5 4 5 5 8 15 15 11 10 11 8 5 4 4 6 7 7 8 8 7 6 6 7 6 5 5 4 4 4 4 4 5 6 6 6 6 6 6 6 7 7 8 8 8 8 8 8 7 6 6 6 6 6 6 7 7 7 7 7 8 7 7 6 6 5 5 5 5 5
1 3 1 -2 -13 -3 9 -2 -4 -4 -4 8 8 -5 -12 -6 6 7 6 13 16 11 5 5 5 5 5 4 4 5 5 3 3 9 13 12 12 13 12 9 8 9 9 9 8 8 7 7 6 6 6 4 3 3 2 3 2 2 3 3 3 4 4 4 4 5 4 5 5 6 7 7 7 7 7 8 7 7 6 6 6 6 7 7 7 8 8 8 8 7 7 7 6 6 6 5 5
1 -1 -3 -1 -11 -3 8 -7 -9 -4 -6 1 7 7 0 -4 5 7 4 8 15 15 8 6 5 2 5 4 3 5 4 3 3 4 7 12 13 12 11 11 10 10 11 10 8 7 6 6 5 4 4 3 2 2 1 1 1 2 3 3 3 3 4 4 4 4 4 4 4 4 4 4 5 5 5 5 6 6 6 6 6 6 6 6 6 7 7 7 7 7 7 7 7 6 7 6 5
-2 -1 -0 1 -7 -2 1 -10 -9 -9 -9 -1 1 4 -1 -7 1 4 3 6 14 19 13 8 4 3 7 6 4 6 4 3 4 3 3 7 12 11 9 9 8 9 10 9 7 5 5 4 3 3 3 2 2 1 2 2 3 3 3 4 4 3 4 4 4 4 4 4 4 5 5 5 5 5 4 4 4 4 4 4 4 5 5 5 5 5 5 5 5 6 7 7 8 7 7 6 6
-2 0 -0 -0 -1 1 -5 -6 -2 -8 -2 5 2 4 -4 -6 1 -2 3 8 9 18 16 7 4 6 10 7 7 9 6 5 5 4 3 3 7 9 10 9 7 7 8 7 5 3 4 3 3 3 2 2 2 2 3 3 3 3 4 4 4 4 4 3 4 4 4 4 4 4 5 5 6 6 6 5 6 5 5 4 4 4 4 4 4 5 5 5 5 6 7 7 7 7 7 7 6
-4 -1 1 -0 0 -0 -5 -2 -0 -2 9 7 4 8 -7 -8 1 -5 4 8 8 22 21 12 10 12 13 9 8 9 7 7 7 5 4 5 5 4 6 9 8 6 5 6 5 3 4 3 3 3 2 2 2 2 2 2 3 3 3 3 3 4 4 4 4 3 3 3 3 3 3 4 4 4 4 5 6 6 6 7 6 5 5 4 4 4 5 5 4 4 5 6 6 6 7 7 7
-1 -2 -2 -2 -0 2 1 2 -0 2 8 -2 2 10 -1 2 8 -1 -1 2 14 23 13 11 15 14 14 11 11 11 6 6 7 7 6 5 4 3 4 6 7 7 5 6 6 4 5 4 3 3 2 2 1 2 1 2 3 2 3 3 3 3 3 4 4 3 4 3 3 4 4 4 3 3 2 2 3 4 5 6 7 7 6 6 5 4 4 3 3 3 4 5 5 6 7 8 8
3 -7 -10 -1 3 0 -2 -2 -3 1 -0 -2 9 13 8 12 9 1 -3 -0 20 20 3 8 12 8 12 13 15 16 12 9 5 5 6 7 6 3 4 4 5 7 5 6 6 4 4 4 4 2 2 2 1 2 2 1 2 2 3 3 4 4 3 4 4 4 4 3 4 3 3 3 3 3 2 2 2 3 4 5 6 8 8 8 6 5 4 4 4 4 4 5 5 6 7 8 9
10 -3 -7 8 7 -2 -2 -3 -3 1 1 3 10 5 3 7 3 3 1 1 14 7 -2 8 7 4 7 6 11 14 14 14 10 8 6 6 7 7 7 6 4 4 4 4 4 4 4 4 4 3 3 3 2 2 1 1 2 2 3 3 3 3 3 4 4 5 5 5 4 3 3 4 3 3 2 2 3 4 5 5 6 8 8 9 7 6 6 5 5 5 4 5 5 6 8 9 9
21 10 3 11 7 -1 -2 -3 -2 5 7 7 8 3 0 -0 -2 4 5 8 15 5 0 4 0 2 4 3 7 10 16 17 13 14 11 5 5 7 10 9 7 6 4 4 4 3 4 3 4 3 3 3 2 2 1 2 3 2 2 1 0 2 4 6 6 6 7 7 7 5 4 4 4 5 4 4 5 5 6 6 7 9 9 10 9 7 6 5 5 5 5 5 4 6 8 9 9
21 15 5 5 5 -3 -7 -3 -1 4 7 5 6 5 5 3 2 7 5 7 12 1 -2 7 5 2 3 5 4 6 19 19 11 8 6 10 14 11 10 11 11 9 7 7 6 4 4 3 4 3 3 3 2 2 3 3 3 2 2 0 0 4 7 8 8 9 9 8 7 5 5 5 5 6 6 6 7 6 6 7 9 10 10 10 9 7 6 6 5 5 5 5 4 6 8 9 9
16 13 2 0 3 -6 -8 -1 -3 -1 2 3 6 4 3 3 4 10 7 6 8 -10 -12 12 19 5 1 7 3 0 11 17 20 18 7 9 16 12 9 9 9 9 8 8 7 8 8 6 6 6 4 4 4 5 5 4 4 4 4 3 4 8 10 10 9 8 8 7 6 6 6 7 7 7 7 7 6 6 8 9 10 10 10 10 9 7 6 5 5 4 4 4 3 5 7 9 10
14 14 0 -2 2 -3 -4 -3 -5 3 4 -0 1 -0 2 1 -2 8 10 9 14 -1 -10 9 17 4 -2 2 0 -1 4 4 11 19 14 11 9 7 7 6 6 6 4 5 5 7 9 8 8 7 7 9 10 11 11 12 12 11 11 9 9 11 11 9 8 6 6 6 6 7 8 8 8 7 7 7 7 7 9 10 10 9 10 11 10 7 6 5 4 4 4 3 3 5 8 9 9
13 16 4 -2 2 -1 -2 -4 -5 6 8 4 3 0 4 -0 -4 11 15 9 7 -4 -9 2 9 3 -3 3 8 8 11 8 5 8 10 12 9 6 7 5 4 6 6 6 7 7 9 9 9 8 11 13 13 13 13 13 15 15 16 13 10 10 9 7 6 6 6 6 7 8 8 8 7 7 7 6 5 7 9 10 10 9 10 10 10 7 5 5 5 5 4 2 3 6 9 10 9
9 14 7 1 1 -4 -3 1 3 5 4 5 6 4 3 -6 -9 5 10 5 1 -7 -7 -0 1 -5 -7 9 18 11 12 13 10 8 9 14 17 17 18 14 10 8 8 11 12 10 8 7 8 10 11 12 11 11 9 11 15 17 14 9 8 8 7 7 7 7 8 8 8 8 8 8 8 8 7 4 5 8 10 10 9 9 10 10 9 7 6 5 6 6 4 2 4 8 10 11 10
6 12 7 0 -1 -6 -10 -3 6 9 6 4 1 -0 3 -0 0 6 5 4 3 -2 1 2 -4 -11 -9 8 13 5 8 9 6 12 18 18 13 11 16 18 16 13 11 13 12 8 6 6 8 8 8 8 8 8 7 10 14 15 11 7 7 8 7 6 7 8 9 8 7 7 8 8 8 8 6 5 6 8 9 9 8 9 10 9 7 6 5 6 6 5 4 4 6 9 10 10 10
4 6 8 2 -3 -4 -9 -10 -1 5 7 10 6 -2 1 7 13 10 0 -0 3 1 3 2 -1 -3 -5 5 10 4 5 4 0 9 16 7 -5 -4 5 11 14 16 13 13 11 7 7 7 6 5 5 6 7 7 8 9 10 11 10 7 8 9 8 5 6 7 9 9 7 7 7 8 8 7 6 7 8 7 8 8 8 8 9 7 6 6 7 7 7 7 6 6 7 8 9 9 10
2 -1 10 7 -6 -4 -4 -9 -4 2 3 9 9 2 -0 1 2 -1 -4 2 8 8 13 16 19 22 15 11 13 8 3 1 -2 1 4 -0 -4 1 7 9 11 12 12 12 11 9 9 8 5 5 6 7 6 7 8 9 9 8 7 4 4 7 8 7 6 7 10 10 8 7 7 8 8 6 6 8 8 7 7 8 8 8 7 6 7 8 8 7 6 6 5 5 5 6 8 10 10
6 6 17 13 -0 2 2 -9 -8 2 5 3 1 -2 -0 -1 -2 2 7 10 6 5 19 28 24 24 21 12 7 4 -1 -1 1 2 3 3 5 7 9 12 14 13 13 13 13 11 10 9 8 7 7 6 5 7 8 8 8 7 6 4 3 5 7 7 7 8 9 8 7 6 7 7 7 5 5 7 8 8 8 8 8 7 6 7 9 9 8 7 6 6 5 4 6 8 10 12 11
12 14 16 15 10 9 8 0 -6 -1 6 6 -0 -6 -3 4 5 9 14 12 8 9 16 17 8 6 9 6 4 3 -1 -2 1 3 4 5 7 8 9 13 15 14 13 14 15 16 13 10 10 9 6 5 5 7 7 7 6 6 6 5 5 6 7 8 8 7 6 6 7 7 7 8 7 3 2 3 6 8 8 7 6 6 6 8 9 8 6 7 6 5 5 6 8 10 11 11 9
13 9 4 8 13 5 3 10 6 0 2 4 1 -6 -4 7 10 9 9 1 2 13 15 10 7 6 5 5 5 4 -0 0 4 3 4 7 7 7 8 11 14 13 13 13 12 12 11 10 9 8 6 5 6 7 6 6 5 5 5 5 5 7 7 8 7 6 6 7 8 8 8 10 6 2 4 6 6 8 7 6 6 6 7 8 8 7 7 7 5 4 5 7 9 10 10 9 7
7 5 1 1 8 2 -1 11 13 7 5 0 -4 -5 -2 2 4 7 9 1 0 12 14 8 8 7 5 4 5 4 2 2 4 3 5 9 9 8 6 11 17 14 10 11 12 11 10 9 7 6 8 8 7 6 6 6 5 6 7 4 5 8 8 7 7 6 7 7 7 8 10 11 6 3 7 8 7 7 6 6 6 7 9 9 8 7 6 5 4 4 5 7 8 9 8 7 6
Height
5897 5896 5896 5895 5895 5895 5895 5894 5894 5895 5895 5895 5893 5893 5893 5893 5893 5893 5893 5893 5893 5893 5894 5894 5894 5894 5893 5893 5893 5894 5896 5896 5896 5896 5898 5900 5900 5899 5898 5897 5897 5897 5897 5898 5899 5899 5899 5901 5902 5903 5903 5904 5905 5905 5906 5905 5905 5905 5905 5905 5905 5906 5907 5909 5909 5909 5909 5908 5908 5908 5908 5909 5909 5910 5910 5911 5911 5910 5910 5910 5910 5909 5908 5908 5908 5907 5907 5907 5907 5907 5907 5907 5907 5907 5907 5907 5907
5899 5898 5897 5897 5896 5896 5896 5895 5895 5895 5895 5896 5894 5893 5894 5894 5894 5895 5895 5895 5894 5894 5895 5895 5896 5896 5894 5894 5894 5895 5897 5897 5896 5897 5899 5901 5901 5901 5900 5899 5899 5898 5898 5900 5900 5900 5900 5901 5902 5903 5903 5904 5905 5906 5907 5907 5907 5906 5907 5906 5907 5907 5908 5909 5909 5910 5911 5910 5909 5909 5910 5910 5911 5911 5911 5911 5911 5911 5910 5910 5910 5909 5909 5909 5908 5908 5908 5907 5907 5907 5907 5907 5907 5908 5908 5908 5908
5900 5900 5899 5899 5898 5898 5897 5897 5896 5895 5896 5897 5896 5894 5894 5894 5895 5896 5896 5896 5895 5896 5896 5896 5896 5897 5895 5895 5895 5896 5898 5898 5897 5897 5900 5901 5901 5902 5901 5901 5901 5900 5900 5901 5901 5901 5901 5901 5902 5903 5904 5905 5906 5907 5907 5908 5908 5908 5908 5908 5908 5908 5908 5908 5910 5911 5911 5911 5910 5910 5910 5911 5911 5911 5911 5911 5911 5911 5911 5910 5910 5910 5909 5909 5909 5908 5908 5908 5908 5908 5908 5908 5908 5908 5908 5908 5908
5901 5901 5900 5900 5899 5899 5898 5898 5897 5897 5897 5897 5896 5894 5893 5894 5896 5897 5897 5897 5897 5897 5896 5896 5896 5897 5897 5896 5896 5897 5898 5899 5898 5897 5900 5903 5902 5902 5902 5902 5902 5901 5901 5902 5903 5903 5902 5902 5903 5903 5904 5905 5906 5907 5907 5908 5909 5909 5910 5910 5911 5910 5910 5910 5911 5911 5911 5911 5911 5911 5911 5911 5912 5912 5911 5911 5911 5911 5911 5911 5910 5910 5910 5910 5909 5909 5909 5909 5909 5908 5908 5908 5908 5908 5908 5909 5909
5902 5902 5902 5901 5900 5900 5900 5900 5900 5899 5898 5897 5897 5894 5893 5895 5897 5898 5898 5898 5898 5898 5897 5897 5896 5897 5899 5898 5898 5899 5899 5900 5899 5898 5900 5903 5903 5903 5903 5903 5903 5902 5902 5903 5904 5904 5904 5904 5904 5904 5904 5905 5906 5907 5908 5909 5910 5911 5911 5912 5912 5912 5912 5912 5912 5912 5912 5912 5912 5912 5912 5912 5912 5912 5911 5911 5911 5911 5911 5911 5911 5911 5910 5910 5910 5910 5910 5909 5909 5909 5909 5909 5909 5909 5909 5909 5909
5903 5903 5903 5902 5902 5902 5901 5902 5901 5901 5899 5898 5898 5897 5897 5897 5898 5898 5899 5899 5899 5899 5898 5897 5896 5898 5899 5900 5900 5900 5900 5901 5900 5899 5900 5903 5904 5903 5903 5903 5903 5903 5903 5904 5905 5905 5905 5906 5906 5906 5906 5907 5908 5908 5909 5910 5910 5911 5911 5912 5912 5912 5912 5912 5912 5913 5913 5913 5913 5913 5912 5912 5912 5912 5911 5911 5911 5911 5912 5911 5911 5911 5911 5911 5911 5910 5910 5909 5909 5909 5909 5909 5909 5909 5909 5909 5909
5905 5904 5904 5903 5904 5903 5903 5903 5903 5902 5900 5899 5900 5900 5899 5899 5899 5899 5899 5899 5899 5899 5898 5897 5898 5899 5900 5901 5902 5901 5902 5902 5901 5901 5901 5903 5904 5904 5904 5904 5904 5904 5904 5905 5906 5906 5906 5907 5907 5908 5908 5909 5909 5909 5910 5910 5910 5911 5911 5912 5912 5912 5912 5912 5913 5913 5913 5913 5913 5912 5912 5912 5912 5912 5912 5912 5912 5912 5912 5912 5912 5912 5912 5912 5911 5910 5910 5910 5910 5909 5909 5909 5909 5909 5909 5909 5909
5906 5905 5905 5904 5904 5905 5905 5905 5903 5903 5901 5901 5901 5901 5900 5900 5900 5899 5899 5899 5899 5899 5899 5899 5900 5900 5900 5902 5902 5903 5904 5903 5902 5902 5902 5903 5904 5905 5905 5905 5906 5906 5906 5906 5906 5906 5907 5908 5908 5908 5909 5910 5910 5910 5910 5911 5911 5912 5912 5912 5912 5912 5913 5913 5913 5913 5913 5913 5913 5913 5913 5913 5913 5913 5913 5913 5914 5914 5913 5913 5913 5913 5912 5912 5911 5911 5910 5910 5910 5909 5909 5909 5909 5909 5909 5909 5909
5907 5907 5906 5905 5905 5905 5906 5906 5905 5904 5902 5902 5902 5901 5901 5900 5900 5900 5900 5900 5900 5900 5900 5900 5901 5901 5901 5903 5903 5904 5904 5904 5903 5903 5903 5904 5905 5906 5906 5907 5907 5907 5906 5906 5907 5907 5907 5908 5908 5908 5909 5910 5910 5911 5911 5912 5912 5912 5913 5913 5913 5914 5914 5914 5914 5913 5913 5913 5913 5913 5913 5914 5914 5914 5914 5914 5914 5914 5914 5914 5913 5913 5912 5911 5911 5911 5910 5910 5909 5909 5909 5909 5909 5909 5909 5909 5909
5908 5908 5907 5907 5907 5907 5907 5906 5906 5905 5904 5903 5903 5902 5902 5901 5900 5901 5901 5901 5902 5901 5901 5901 5901 5901 5902 5904 5904 5905 5905 5905 5904 5904 5904 5905 5905 5906 5906 5907 5908 5908 5907 5907 5907 5908 5908 5908 5908 5909 5909 5910 5911 5912 5912 5913 5913 5913 5914 5914 5914 5914 5914 5914 5914 5913 5913 5913 5913 5914 5914 5914 5914 5914 5914 5914 5914 5914 5914 5914 5913 5912 5912 5911 5911 5910 5910 5910 5909 5909 5909 5909 5909 5908 5908 5908 5908
5909 5909 5908 5908 5908 5908 5907 5907 5906 5906 5906 5905 5904 5904 5903 5902 5902 5902 5903 5903 5903 5902 5902 5903 5902 5902 5903 5904 5905 5906 5906 5906 5905 5905 5905 5906 5906 5906 5907 5907 5908 5908 5908 5908 5908 5908 5909 5909 5909 5909 5910 5911 5912 5913 5913 5914 5914 5914 5914 5915 5915 5914 5914 5914 5914 5914 5914 5914 5915 5915 5915 5915 5914 5914 5914 5914 5914 5914 5914 5914 5913 5912 5912 5911 5911 5910 5910 5910 5909 5909 5908 5908 5908 5908 5908 5908 5908
5911 5910 5909 5908 5908 5908 5907 5907 5907 5907 5907 5907 5906 5906 5905 5904 5904 5905 5905 5904 5904 5903 5903 5904 5904 5903 5904 5904 5905 5906 5907 5907 5907 5906 5906 5907 5907 5907 5908 5908 5908 5909 5909 5909 5909 5909 5910 5910 5910 5911 5911 5912 5912 5913 5913 5914 5914 5914 5914 5915 5915 5915 5915 5914 5915 5915 5915 5915 5915 5916 5915 5915 5915 5915 5915 5915 5915 5914 5914 5914 5913 5912 5912 5912 5911 5910 5910 5910 5909 5908 5908 5908 5908 5907 5907 5907 5907
5911 5910 5909 5909 5909 5908 5908 5907 5908 5908 5908 5908 5908 5908 5907 5906 5906 5907 5907 5906 5906 5905 5905 5905 5905 5904 5904 5905 5906 5907 5908 5908 5907 5907 5907 5908 5908 5908 5909 5909 5909 5909 5910 5910 5910 5910 5910 5911 5911 5911 5912 5912 5913 5913 5914 5914 5914 5914 5914 5915 5915 5915 5915 5915 5916 5916 5916 5916 5916 5916 5916 5916 5916 5916 5916 5916 5915 5915 5914 5914 5913 5913 5912 5912 5911 5911 5910 5910 5909 5908 5908 5907 5907 5907 5907 5906 5906
5912 5911 5910 5910 5909 5908 5908 5909 5909 5909 5909 5909 5909 5909 5908 5907 5908 5908 5908 5908 5907 5907 5906 5906 5906 5905 5905 5906 5907 5907 5908 5908 5908 5908 5908 5908 5909 5909 5910 5910 5910 5910 5910 5911 5911 5911 5911 5911 5912 5912 5912 5913 5913 5914 5914 5914 5914 5914 5914 5915 5915 5915 5916 5916 5916 5917 5917 5917 5917 5917 5917 5917 5917 5917 5916 5916 5916 5915 5915 5914 5914 5913 5913 5912 5912 5911 5910 5910 5909 5909 5908 5907 5906 5906 5906 5906 5906
5913 5912 5911 5910 5910 5909 5908 5909 5910 5911 5910 5910 5910 5910 5910 5909 5909 5909 5909 5909 5908 5907 5907 5907 5907 5906 5906 5907 5907 5908 5908 5908 5908 5908 5908 5909 5909 5910 5910 5910 5910 5911 5911 5911 5912 5912 5912 5912 5912 5913 5913 5914 5914 5914 5914 5914 5914 5915 5915 5915 5915 5916 5916 5916 5917 5917 5917 5917 5917 5917 5917 5917 5917 5917 5916 5916 5916 5915 5915 5914 5914 5913 5913 5912 5912 5911 5910 5910 5910 5909 5908 5907 5905 5904 5904 5904 5905
5913 5913 5912 5911 5910 5910 5909 5910 5911 5911 5911 5912 5911 5911 5911 5910 5910 5910 5910 5909 5909 5908 5908 5909 5908 5908 5908 5908 5908 5909 5909 5909 5909 5909 5909 5909 5910 5910 5910 5911 5911 5911 5912 5912 5912 5913 5913 5913 5913 5914 5914 5914 5915 5915 5915 5915 5915 5915 5915 5915 5916 5916 5916 5916 5917 5917 5917 5917 5917 5917 5917 5917 5916 5916 5916 5915 5915 5914 5914 5914 5913 5913 5912 5912 5912 5911 5910 5910 5909 5908 5907 5907 5906 5904 5903 5904 5905
5913 5913 5913 5912 5911 5911 5910 5911 5912 5912 5913 5912 5912 5912 5912 5911 5911 5911 5910 5910 5909 5909 5910 5910 5909 5909 5909 5909 5909 5909 5909 5909 5909 5910 5910 5910 5910 5910 5911 5911 5912 5912 5912 5913 5913 5913 5914 5914 5914 5914 5915 5915 5915 5915 5915 5915 5915 5915 5916 5916 5916 5916 5916 5917 5917 5917 5917 5917 5917 5916 5916 5916 5915 5915 5915 5914 5914 5914 5913 5913 5912 5912 5911 5911 5911 5911 5910 5909 5908 5907 5907 5908 5907 5904 5902 5904 5905
5913 5913 5913 5913 5912 5912 5911 5912 5912 5913 5913 5913 5913 5913 5913 5912 5912 5912 5911 5911 5910 5910 5911 5911 5910 5910 5910 5910 5910 5910 5911 5911 5911 5911 5911 5911 5911 5911 5912 5912 5912 5912 5913 5913 5914 5914 5915 5915 5915 5915 5915 5915 5915 5916 5916 5916 5916 5916 5916 5915 5915 5916 5916 5917 5917 5917 5917 5916 5916 5916 5915 5915 5915 5915 5915 5914 5914 5913 5913 5912 5912 5911 5911 5911 5910 5910 5910 5909 5908 5907 5907 5907 5907 5904 5902 5902 5903
5913 5913 5913 5913 5913 5912 5912 5913 5913 5913 5913 5913 5914 5915 5914 5913 5913 5912 5911 5911 5911 5911 5911 5911 5911 5911 5911 5911 5911 5912 5912 5912 5912 5912 5912 5912 5912 5912 5912 5912 5913 5913 5913 5914 5914 5915 5915 5915 5915 5915 5916 5916 5916 5916 5916 5916 5916 5916 5915 5915 5916 5916 5916 5917 5917 5917 5916 5916 5915 5915 5915 5915 5915 5915 5914 5914 5913 5913 5912 5912 5911 5910 5910 5910 5909 5909 5909 5908 5907 5906 5906 5906 5906 5905 5902 5901 5902
5914 5913 5913 5913 5913 5913 5913 5914 5913 5913 5913 5914 5915 5915 5914 5913 5912 5912 5912 5912 5912 5912 5912 5912 5912 5912 5912 5912 5912 5913 5913 5913 5913 5913 5913 5913 5913 5913 5913 5913 5913 5913 5914 5914 5914 5915 5915 5915 5915 5916 5916 5916 5916 5916 5916 5916 5916 5915 5915 5916 5916 5916 5917 5917 5917 5917 5916 5916 5915 5915 5915 5915 5914 5914 5914 5914 5913 5912 5912 5911 5910 5910 5909 5909 5908 5908 5908 5908 5907 5906 5905 5905 5905 5904 5903 5902 5902
5913 5913 5913 5912 5913 5913 5914 5914 5914 5913 5914 5914 5915 5914 5913 5912 5912 5912 5912 5913 5913 5913 5913 5913 5912 5912 5912 5913 5913 5913 5914 5914 5914 5914 5914 5914 5914 5914 5913 5913 5913 5914 5914 5915 5915 5915 5915 5916 5916 5916 5917 5917 5916 5916 5916 5916 5916 5915 5915 5916 5916 5916 5917 5917 5917 5917 5917 5916 5916 5916 5915 5915 5914 5914 5914 5914 5913 5913 5912 5911 5910 5910 5909 5908 5908 5908 5908 5907 5907 5906 5905 5905 5905 5904 5903 5903 5902
5913 5913 5912 5912 5913 5914 5915 5915 5914 5913 5914 5914 5915 5914 5913 5912 5912 5913 5913 5914 5914 5914 5914 5913 5913 5913 5913 5913 5914 5914 5914 5914 5914 5915 5915 5915 5915 5914 5914 5914 5914 5915 5915 5915 5916 5916 5916 5917 5917 5917 5917 5917 5916 5916 5916 5916 5916 5916 5916 5916 5916 5917 5917 5917 5918 5917 5917 5916 5916 5916 5916 5915 5915 5914 5914 5914 5913 5912 5912 5911 5911 5910 5910 5909 5908 5908 5908 5907 5906 5905 5905 5905 5904 5904 5903 5903 5902
5912 5912 5912 5912 5914 5915 5915 5915 5914 5914 5914 5915 5915 5915 5913 5913 5913 5914 5914 5914 5914 5914 5914 5913 5914 5914 5914 5914 5915 5915 5915 5915 5915 5915 5915 5915 5915 5915 5915 5915 5915 5915 5916 5916 5916 5917 5917 5917 5917 5917 5917 5917 5916 5916 5916 5916 5916 5916 5917 5917 5917 5918 5918 5918 5918 5918 5917 5917 5917 5916 5916 5915 5915 5914 5914 5913 5913 5912 5911 5911 5910 5910 5910 5909 5909 5909 5908 5908 5907 5906 5905 5904 5904 5904 5903 5902 5901
5912 5911 5911 5912 5914 5915 5915 5915 5914 5914 5914 5915 5915 5914 5913 5913 5914 5914 5914 5914 5913 5914 5914 5914 5914 5915 5915 5915 5915 5916 5916 5916 5916 5916 5916 5916 5915 5915 5915 5915 5916 5916 5916 5916 5917 5917 5917 5917 5917 5917 5917 5917 5917 5917 5917 5917 5917 5917 5918 5918 5918 5919 5919 5919 5918 5918 5917 5917 5917 5916 5916 5915 5915 5914 5913 5913 5913 5912 5911 5911 5911 5910 5910 5910 5909 5909 5909 5908 5907 5906 5905 5904 5904 5904 5903 5902 5901
5911 5910 5911 5913 5914 5915 5915 5915 5915 5915 5915 5915 5914 5913 5913 5913 5913 5914 5914 5914 5913 5914 5914 5914 5915 5915 5915 5916 5916 5916 5916 5916 5917 5917 5916 5916 5916 5916 5916 5916 5916 5916 5917 5917 5917 5917 5917 5917 5918 5918 5918 5918 5918 5918 5918 5918 5918 5918 5919 5919 5919 5919 5919 5919 5919 5918 5918 5917 5917 5917 5916 5915 5915 5914 5914 5913 5913 5913 5912 5912 5911 5911 5910 5910 5910 5909 5909 5908 5907 5907 5906 5905 5904 5903 5903 5902 5900
5911 5910 5912 5913 5914 5915 5916 5916 5916 5916 5916 5916 5914 5914 5913 5913 5913 5914 5914 5914 5914 5914 5914 5915 5915 5916 5916 5916 5916 5916 5916 5916 5917 5917 5917 5917 5917 5917 5917 5917 5917 5918 5918 5918 5918 5918 5918 5918 5919 5919 5919 5919 5919 5919 5919 5919 5919 5919 5920 5920 5920 5920 5920 5919 5919 5918 5918 5918 5917 5917 5916 5915 5915 5915 5914 5914 5913 5913 5913 5912 5912 5911 5911 5910 5910 5910 5909 5908 5908 5907 5906 5905 5904 5903 5903 5902 5900
5909 5910 5912 5913 5914 5915 5917 5917 5917 5917 5916 5915 5915 5915 5915 5914 5914 5914 5915 5915 5915 5915 5915 5915 5916 5916 5916 5916 5917 5917 5917 5917 5917 5917 5918 5918 5918 5918 5918 5918 5918 5919 5919 5919 5919 5919 5919 5919 5919 5920 5920 5920 5920 5920 5920 5920 5920 5920 5921 5921 5921 5921 5920 5920 5919 5919 5919 5918 5917 5917 5916 5916 5915 5915 5915 5914 5914 5913 5913 5913 5913 5912 5911 5911 5910 5910 5909 5909 5908 5907 5906 5905 5904 5903 5903 5902 5900
5908 5910 5912 5913 5914 5916 5917 5917 5917 5917 5916 5915 5915 5915 5915 5915 5915 5915 5915 5915 5915 5915 5916 5916 5916 5916 5916 5916 5917 5917 5917 5917 5917 5918 5918 5918 5918 5918 5918 5918 5919 5919 5919 5920 5920 5920 5920 5920 5920 5921 5921 5921 5921 5921 5921 5921 5921 5921 5921 5921 5922 5921 5921 5920 5920 5919 5919 5918 5918 5917 5917 5916 5915 5915 5915 5915 5914 5914 5914 5913 5913 5912 5912 5911 5911 5910 5909 5909 5908 5907 5905 5904 5903 5903 5903 5902 5900
5907 5909 5912 5913 5914 5915 5916 5917 5917 5917 5916 5916 5915 5915 5915 5915 5916 5916 5916 5916 5916 5916 5916 5916 5916 5916 5916 5916 5917 5917 5916 5917 5917 5918 5918 5918 5918 5919 5919 5918 5919 5919 5920 5920 5920 5920 5920 5920 5920 5921 5921 5922 5922 5922 5922 5922 5921 5922 5922 5922 5922 5922 5921 5921 5920 5920 5919 5918 5918 5917 5917 5916 5916 5915 5915 5915 5915 5914 5914 5914 5913 5912 5912 5911 5911 5910 5909 5908 5907 5906 5905 5904 5903 5903 5902 5901 5900
5906 5909 5912 5913 5914 5915 5916 5916 5917 5917 5917 5917 5916 5916 5916 5916 5917 5917 5917 5916 5916 5917 5917 5917 5917 5917 5917 5916 5917 5917 5917 5917 5917 5917 5918 5918 5919 5919 5919 5919 5919 5919 5920 5920 5920 5921 5920 5921 5921 5921 5922 5922 5922 5922 5922 5922 5922 5922 5922 5923 5923 5922 5922 5921 5921 5920 5919 5919 5918 5917 5917 5916 5916 5915 5915 5915 5914 5914 5914 5913 5913 5912 5911 5911 5910 5909 5909 5908 5907 5906 5904 5903 5902 5902 5901 5900 5899
5906 5909 5911 5913 5914 5915 5916 5917 5917 5918 5917 5917 5917 5917 5917 5917 5918 5918 5917 5917 5917 5917 5917 5917 5917 5917 5917 5917 5917 5917 5917 5917 5917 5917 5918 5918 5919 5919 5919 5919 5920 5920 5920 5921 5921 5921 5921 5921 5921 5921 5922 5922 5922 5922 5922 5922 5922 5922 5922 5923 5923 5923 5922 5921 5921 5920 5919 5919 5918 5917 5917 5916 5916 5916 5915 5915 5914 5914 5914 5913 5912 5911 5911 5910 5910 5909 5908 5907 5906 5905 5904 5903 5902 5901 5900 5899 5898
5905 5908 5911 5913 5915 5916 5917 5918 5918 5918 5918 5918 5919 5918 5918 5918 5919 5919 5918 5918 5918 5917 5917 5918 5918 5918 5918 5918 5918 5918 5918 5917 5917 5917 5918 5918 5919 5919 5919 5920 5920 5920 5921 5921 5922 5922 5922 5922 5922 5922 5923 5923 5923 5923 5922 5922 5922 5922 5922 5922 5922 5922 5922 5921 5921 5920 5919 5919 5918 5918 5917 5916 5916 5915 5915 5914 5913 5913 5913 5912 5911 5910 5910 5909 5909 5908 5907 5906 5905 5904 5903 5902 5901 5900 5899 5898 5897
5904 5907 5910 5913 5915 5916 5918 5919 5919 5919 5919 5919 5919 5920 5920 5920 5920 5920 5920 5919 5919 5918 5918 5918 5918 5919 5919 5919 5919 5919 5919 5919 5918 5918 5918 5919 5919 5919 5919 5920 5920 5920 5921 5921 5922 5922 5922 5923 5923 5923 5923 5923 5923 5923 5923 5922 5922 5922 5922 5922 5922 5922 5921 5921 5920 5920 5919 5918 5918 5917 5917 5916 5915 5914 5914 5913 5912 5912 5911 5911 5910 5909 5908 5908 5907 5906 5905 5904 5903 5902 5902 5901 5900 5899 5898 5897 5896
5904 5906 5910 5913 5914 5916 5918 5919 5919 5920 5919 5919 5920 5921 5921 5921 5921 5921 5920 5920 5920 5919 5918 5918 5919 5919 5920 5920 5920 5920 5920 5920 5919 5919 5919 5919 5919 5920 5920 5920 5920 5920 5921 5921 5922 5922 5923 5923 5923 5923 5923 5923 5923 5924 5923 5923 5923 5923 5922 5922 5921 5921 5921 5921 5920 5920 5919 5918 5917 5916 5916 5915 5915 5914 5913 5912 5911 5911 5910 5909 5908 5908 5907 5906 5905 5904 5904 5903 5902 5901 5900 5899 5898 5898 5897 5896 5895
5906 5908 5910 5913 5915 5917 5918 5918 5919 5920 5919 5919 5920 5920 5921 5921 5921 5921 5921 5920 5919 5919 5919 5918 5919 5920 5920 5921 5921 5921 5921 5921 5920 5920 5919 5919 5920 5920 5920 5920 5920 5920 5920 5920 5921 5922 5923 5923 5923 5923 5923 5923 5923 5923 5923 5923 5923 5923 5922 5922 5921 5921 5921 5921 5920 5919 5918 5917 5917 5916 5915 5915 5914 5913 5912 5911 5910 5909 5908 5907 5907 5906 5905 5904 5904 5903 5903 5902 5901 5900 5899 5898 5897 5896 5895 5894 5893
5907 5908 5911 5913 5915 5916 5917 5918 5919 5920 5919 5919 5920 5920 5920 5921 5921 5921 5921 5920 5919 5919 5919 5919 5919 5920 5921 5921 5921 5921 5920 5921 5921 5921 5920 5920 5920 5920 5920 5920 5920 5920 5920 5920 5920 5921 5922 5922 5923 5923 5923 5923 5923 5922 5922 5922 5922 5921 5921 5921 5920 5920 5919 5919 5918 5918 5917 5917 5916 5915 5915 5914 5913 5913 5911 5910 5909 5908 5907 5907 5906 5905 5904 5904 5903 5902 5902 5901 5900 5899 5898 5896 5895 5894 5894 5893 5891
5904 5906 5909 5911 5913 5914 5915 5916 5917 5919 5919 5919 5919 5919 5919 5920 5920 5920 5920 5920 5920 5919 5919 5919 5919 5920 5921 5921 5921 5920 5920 5920 5920 5921 5920 5920 5920 5920 5920 5920 5920 5920 5920 5920 5920 5921 5921 5922 5922 5922 5922 5922 5922 5922 5922 5921 5921 5920 5920 5919 5919 5918 5918 5917 5917 5916 5916 5916 5916 5915 5914 5913 5913 5912 5911 5910 5909 5908 5907 5906 5905 5904 5903 5903 5902 5901 5900 5899 5898 5897 5896 5895 5894 5893 5892 5891 5890
5903 5905 5907 5909 5910 5912 5913 5914 5916 5917 5917 5918 5918 5918 5918 5918 5919 5919 5919 5919 5919 5919 5918 5919 5919 5919 5919 5920 5920 5920 5920 5919 5919 5920 5920 5920 5919 5919 5920 5920 5920 5920 5920 5920 5920 5920 5920 5921 5921 5921 5921 5921 5921 5922 5922 5921 5921 5920 5920 5919 5919 5918 5918 5917 5916 5916 5916 5916 5915 5914 5914 5913 5912 5911 5910 5909 5908 5907 5906 5905 5904 5904 5903 5902 5901 5900 5899 5898 5897 5896 5895 5893 5892 5891 5890 5889 5888
5902 5904 5904 5906 5908 5910 5911 5912 5913 5914 5915 5916 5917 5917 5917 5917 5918 5918 5918 5918 5919 5918 5918 5918 5918 5918 5918 5919 5919 5919 5919 5919 5919 5919 5919 5919 5919 5919 5919 5920 5920 5920 5920 5920 5920 5920 5920 5920 5920 5921 5921 5921 5921 5921 5921 5921 5921 5921 5920 5920 5919 5919 5918 5917 5917 5916 5915 5915 5914 5913 5913 5912 5911 5910 5909 5908 5907 5906 5905 5904 5904 5903 5902 5901 5900 5899 5897 5896 5895 5894 5892 5891 5890 5889 5888 5887 5885
5901 5902 5902 5904 5905 5907 5909 5910 5911 5912 5913 5914 5915 5915 5916 5916 5917 5918 5918 5918 5918 5918 5918 5918 5918 5917 5918 5918 5918 5919 5919 5918 5918 5918 5918 5918 5919 5919 5919 5919 5920 5920 5920 5920 5920 5920 5920 5920 5920 5920 5920 5920 5921 5921 5920 5920 5920 5920 5919 5919 5919 5918 5918 5917 5916 5916 5915 5914 5913 5912 5912 5911 5910 5909 5908 5907 5906 5905 5904 5903 5902 5901 5900 5899 5898 5896 5895 5894 5892 5891 5890 5889 5888 5887 5886 5884 5883
5900 5900 5901 5903 5904 5905 5908 5909 5909 5909 5910 5911 5913 5914 5914 5915 5916 5917 5917 5917 5917 5917 5917 5917 5917 5917 5917 5917 5917 5918 5918 5917 5917 5917 5918 5918 5918 5918 5919 5919 5919 5919 5919 5920 5919 5919 5919 5919 5919 5919 5919 5919 5919 5919 5919 5919 5918 5918 5918 5918 5918 5917 5916 5916 5915 5914 5914 5913 5912 5911 5911 5910 5909 5908 5907 5906 5905 5903 5902 5901 5900 5899 5898 5897 5895 5894 5893 5892 5890 5889 5888 5887 5886 5884 5883 5882 5880
5899 5900 5901 5903 5904 5905 5906 5907 5908 5908 5908 5910 5912 5912 5913 5914 5915 5916 5916 5917 5917 5917 5916 5916 5916 5917 5917 5917 5917 5917 5917 5916 5916 5916 5917 5917 5917 5918 5918 5918 5918 5918 5919 5919 5919 5919 5919 5918 5918 5918 5918 5917 5917 5917 5917 5917 5916 5916 5916 5916 5916 5915 5915 5914 5913 5912 5912 5911 5910 5910 5909 5908 5907 5906 5905 5904 5903 5902 5901 5899 5898 5897 5896 5895 5893 5892 5891 5890 5888 5887 5886 5885 5883 5882 5881 5879 5878
5897 5899 5901 5902 5903 5904 5905 5906 5906 5906 5907 5909 5910 5910 5911 5912 5914 5915 5916 5916 5916 5916 5916 5915 5916 5916 5916 5916 5916 5916 5916 5916 5916 5916 5916 5917 5917 5917 5918 5918 5918 5918 5918 5918 5918 5918 5918 5917 5917 5917 5916 5916 5916 5916 5915 5915 5914 5914 5914 5913 5913 5913 5912 5912 5911 5910 5910 5909 5908 5907 5907 5906 5906 5905 5904 5903 5902 5900 5899 5898 5896 5895 5894 5893 5891 5890 5889 5887 5886 5885 5883 5882 5881 5880 5878 5877 5875
5896 5899 5901 5901 5902 5903 5904 5905 5904 5905 5906 5907 5907 5909 5909 5910 5913 5914 5914 5915 5916 5916 5916 5915 5915 5915 5915 5916 5915 5915 5915 5915 5915 5915 5916 5916 5916 5916 5917 5917 5917 5917 5917 5917 5917 5917 5916 5916 5916 5915 5915 5915 5914 5914 5914 5913 5913 5912 5912 5911 5911 5910 5910 5910 5909 5909 5908 5907 5906 5905 5905 5904 5904 5903 5902 5901 5900 5898 5897 5895 5893 5892 5891 5890 5888 5887 5886 5885 5883 5882 5881 5880 5878 5877 5876 5874 5873
5897 5900 5900 5901 5902 5901 5902 5903 5904 5904 5904 5903 5905 5908 5908 5909 5911 5912 5912 5914 5915 5915 5915 5915 5915 5915 5914 5914 5914 5914 5914 5914 5914 5914 5914 5915 5915 5915 5915 5916 5916 5916 5916 5916 5916 5915 5915 5915 5914 5914 5914 5913 5913 5913 5912 5912 5911 5911 5910 5909 5909 5908 5908 5908 5907 5907 5906 5905 5904 5903 5902 5902 5901 5900 5899 5898 5897 5895 5893 5892 5890 5889 5887 5886 5885 5884 5883 5882 5881 5879 5878 5877 5876 5874 5873 5871 5870
5897 5899 5898 5899 5899 5899 5900 5900 5902 5903 5900 5900 5904 5906 5906 5907 5909 5911 5910 5912 5914 5914 5914 5915 5915 5914 5914 5913 5913 5913 5912 5912 5912 5912 5913 5913 5913 5914 5914 5914 5914 5914 5914 5914 5914 5914 5914 5913 5913 5913 5912 5912 5912 5911 5911 5910 5910 5909 5909 5908 5907 5907 5906 5905 5905 5904 5903 5902 5901 5900 5900 5899 5898 5897 5896 5895 5893 5892 5890 5889 5887 5886 5885 5884 5883 5881 5880 5879 5878 5877 5875 5874 5873 5871 5870 5868 5866
5895 5896 5895 5897 5897 5897 5897 5897 5899 5899 5896 5897 5902 5904 5904 5904 5906 5908 5909 5910 5913 5913 5913 5914 5914 5913 5913 5912 5912 5911 5910 5910 5910 5911 5911 5911 5911 5911 5912 5912 5912 5912 5912 5912 5912 5912 5912 5912 5912 5911 5911 5911 5910 5910 5909 5909 5908 5908 5907 5906 5906 5905 5904 5902 5902 5901 5900 5899 5898 5897 5896 5896 5895 5894 5893 5892 5891 5889 5888 5886 5885 5883 5882 5881 5880 5878 5877 5876 5875 5874 5872 5871 5869 5868 5866 5864 5863
5891 5892 5893 5894 5894 5894 5894 5893 5894 5892 5892 5896 5900 5901 5900 5899 5902 5906 5907 5909 5911 5912 5912 5912 5912 5912 5912 5911 5911 5911 5910 5909 5908 5909 5909 5910 5910 5910 5910 5910 5910 5910 5910 5910 5910 5910 5910 5910 5910 5910 5910 5909 5909 5908 5908 5907 5907 5906 5905 5905 5904 5902 5901 5900 5899 5898 5897 5896 5895 5894 5894 5893 5892 5891 5890 5889 5888 5887 5885 5884 5882 5881 5879 5878 5877 5875 5874 5873 5872 5870 5869 5868 5866 5865 5863 5861 5859
5886 5888 5890 5890 5890 5890 5890 5890 5890 5888 5891 5895 5897 5897 5894 5893 5899 5904 5905 5907 5909 5910 5911 5911 5911 5911 5910 5910 5911 5910 5909 5909 5908 5907 5907 5908 5908 5908 5909 5909 5909 5908 5908 5907 5907 5907 5908 5908 5908 5908 5907 5907 5907 5906 5906 5905 5904 5904 5903 5902 5901 5900 5899 5898 5897 5896 5895 5894 5893 5892 5891 5890 5889 5888 5887 5886 5885 5884 5882 5881 5879 5878 5876 5875 5874 5872 5871 5870 5869 5867 5866 5865 5863 5861 5859 5857 5855
5882 5884 5886 5886 5886 5886 5886 5887 5887 5887 5890 5894 5895 5893 5888 5889 5897 5901 5902 5905 5907 5908 5910 5910 5910 5909 5909 5909 5909 5909 5908 5908 5907 5907 5906 5906 5906 5906 5907 5907 5907 5907 5906 5905 5905 5905 5905 5906 5906 5905 5905 5905 5905 5904 5903 5903 5902 5901 5900 5900 5899 5898 5897 5896 5895 5894 5892 5891 5891 5890 5888 5887 5886 5885 5884 5883 5882 5881 5879 5878 5876 5875 5874 5872 5871 5870 5868 5867 5866 5865 5863 5861 5860 5858 5856 5854 5852
5880 5882 5884 5884 5883 5883 5884 5885 5885 5887 5889 5890 5891 5887 5884 5888 5895 5898 5900 5902 5904 5906 5907 5908 5909 5907 5907 5908 5908 5908 5907 5906 5906 5905 5905 5904 5904 5904 5905 5905 5905 5905 5904 5903 5903 5903 5903 5904 5903 5903 5903 5903 5902 5902 5901 5900 5899 5898 5898 5897 5897 5896 5895 5893 5892 5891 5890 5889 5888 5887 5886 5884 5883 5882 5881 5880 5879 5878 5877 5875 5874 5872 5871 5870 5868 5867 5866 5865 5863 5862 5860 5858 5856 5855 5852 5850 5848
5877 5880 5880 5880 5881 5883 5883 5883 5884 5886 5886 5886 5885 5883 5883 5889 5893 5895 5896 5898 5900 5902 5904 5906 5906 5906 5906 5907 5907 5907 5906 5905 5905 5904 5904 5903 5903 5903 5903 5902 5902 5902 5901 5901 5902 5902 5902 5902 5901 5901 5901 5900 5900 5899 5898 5897 5896 5895 5895 5895 5894 5893 5892 5891 5890 5889 5888 5887 5886 5884 5883 5882 5881 5879 5878 5877 5876 5875 5874 5872 5871 5870 5869 5867 5866 5864 5863 5862 5860 5859 5857 5855 5853 5851 5848 5846 5844
5873 5874 5875 5877 5881 5883 5882 5881 5882 5883 5882 5881 5881 5882 5884 5886 5888 5890 5893 5894 5896 5898 5900 5902 5903 5903 5903 5904 5905 5905 5904 5904 5904 5903 5903 5903 5902 5902 5901 5900 5899 5899 5899 5899 5899 5900 5900 5900 5899 5899 5898 5898 5897 5896 5896 5895 5893 5893 5892 5892 5892 5891 5889 5888 5887 5886 5885 5884 5883 5882 5880 5879 5878 5877 5875 5874 5873 5872 5871 5870 5868 5867 5866 5864 5863 5862 5860 5859 5857 5855 5853 5851 5849 5846 5844 5842 5841
5869 5870 5873 5877 5879 5879 5879 5879 5879 5879 5879 5878 5879 5881 5882 5883 5884 5887 5891 5892 5893 5895 5897 5899 5900 5900 5901 5902 5903 5903 5903 5903 5902 5902 5902 5902 5901 5900 5899 5898 5897 5896 5896 5896 5896 5897 5897 5897 5897 5896 5895 5895 5894 5893 5893 5892 5891 5890 5890 5889 5889 5888 5886 5885 5884 5883 5882 5881 5880 5879 5878 5876 5875 5874 5873 5871 5870 5869 5868 5867 5865 5864 5863 5862 5860 5859 5857 5856 5854 5851 5849 5847 5845 5843 5840 5838 5837
5865 5867 5871 5874 5874 5874 5875 5875 5874 5875 5876 5876 5877 5879 5880 5881 5883 5886 5889 5891 5892 5893 5894 5896 5897 5897 5898 5899 5900 5901 5901 5901 5901 5901 5900 5900 5900 5899 5897 5896 5895 5894 5893 5893 5894 5894 5894 5895 5894 5894 5893 5892 5891 5890 5890 5889 5888 5887 5886 5886 5885 5884 5883 5882 5881 5880 5879 5878 5877 5876 5874 5873 5872 5871 5870 5869 5867 5866 5865 5863 5862 5861 5860 5859 5857 5856 5854 5852 5850 5848 5845 5843 5841 5839 5837 5834 5833
5861 5863 5866 5868 5869 5871 5872 5872 5872 5873 5873 5874 5875 5876 5878 5880 5883 5885 5888 5889 5890 5890 5891 5893 5894 5894 5896 5897 5898 5898 5899 5899 5899 5898 5898 5898 5898 5897 5896 5894 5893 5892 5891 5891 5891 5891 5892 5892 5891 5891 5890 5889 5888 5887 5887 5885 5885 5884 5883 5883 5882 5881 5880 5879 5878 5877 5876 5875 5873 5872 5871 5870 5869 5868 5867 5866 5864 5863 5861 5860 5859 5858 5857 5855 5854 5852 5850 5848 5845 5843 5841 5840 5838 5836 5833 5831 5829
5857 5859 5860 5862 5865 5866 5868 5869 5869 5870 5870 5871 5872 5873 5875 5879 5882 5884 5886 5887 5888 5888 5889 5890 5891 5892 5893 5894 5895 5896 5896 5896 5896 5896 5896 5896 5895 5895 5893 5892 5891 5890 5890 5890 5889 5889 5889 5888 5888 5888 5887 5886 5885 5884 5883 5882 5881 5880 5879 5879 5878 5877 5877 5876 5874 5873 5872 5871 5870 5869 5868 5867 5866 5865 5864 5863 5861 5860 5858 5857 5856 5854 5853 5852 5850 5849 5846 5844 5842 5840 5838 5836 5834 5832 5829 5827 5824
5854 5856 5857 5859 5861 5863 5865 5865 5864 5866 5868 5869 5870 5871 5873 5877 5879 5882 5884 5885 5885 5886 5886 5887 5888 5890 5891 5892 5893 5893 5894 5894 5894 5893 5893 5893 5892 5892 5891 5890 5889 5888 5888 5887 5887 5886 5886 5886 5885 5885 5884 5883 5882 5881 5880 5879 5878 5877 5876 5875 5874 5874 5873 5872 5871 5870 5869 5868 5866 5865 5864 5863 5863 5862 5861 5859 5858 5856 5855 5853 5852 5851 5849 5848 5847 5845 5842 5840 5839 5837 5835 5832 5830 5828 5825 5823 5820